星链-4209 (STARLINK-4209 )

导读

STARLINK-4209是美国SpaceX星链星座的卫星,于2022年6月17日发射入轨,属于星链低轨互联网星座组网卫星。它依托星链大规模低轨部署计划,为全球提供高速低延迟卫星互联网服务,尤其补充偏远地区网络覆盖,服务包括民用通信、部分军方通信保障等场景,是星链星座扩容组网的重要组成部分。

基本信息
目录编号:
52855
目录名称:
STARLINK-4209
国际标识:
2022-062AB
轨道中心:
EARTH
卫星名称:
星链-4209
卫星全名:
星链-4209 (STARLINK-4209 )
卫星状态:
在轨 (已飞行1547 天)
发射日期:
2022-06-17 UTC
国别 :
美国 (US)
星等 :
--
该卫星已列入 空间交会检测服务 Space Conjunction Data Service (SCDS) ,当前飞行风险评估等级: 无高风险
轨道信息
数据来源 国际轨道数据
星历时间: 2026-09-10T15:15:43+0800
1天前
查看轨道信息
半长轴: 6848.872km
偏心率: 0.0001262
轨道倾角: 53.159°
近地点辐角 83.514°
升交点赤经 264.286°
平近点角 276.601°
近地点: 469.87km
远地点: 471.6km
周期: 94.013分钟
每日圈数: 15.31702
详细信息
固有亮度:
5
最大亮度:
2.5
卫星平台:
Starlink v1.5
覆盖范围:
全球
运营商:
太空探索技术公司
运营商所在国:
美国
制造商(研发单位):
太空探索技术公司
制造商所在国:
美国
使用方式:
暂无
卫星简介
星链(Starlink)计划是由太空探索技术公司(SpaceX)提出的一个巨型低轨卫星互联网星座项目,计划在2019年至2024年间在太空搭建由约1.2万颗卫星组成的“星链”网络,其中1584颗将部署在地球上空550千米处的近地轨道,并从2020年开始工作。该卫星仍在工作。
2D轨道图
3D轨道图
轨道高度分析图
轨道倾角分析图
轨道综合分析图
查看轨道综合分析图
交会数据列表
事件ID 空间交会对象 最接近时刻(TCA) 交会距离 交会风险概率(CRP) 交会风险指数(CRI) 操作
CDM_260912-172605-285506-484421
2026-09-12T
17:26:20+0000
1.753 km
极远距离
4.01296E-6 低风险 0.47
CDM_260913-153405-285506-769521
2026-09-13T
15:34:07+0000
2.454 km
极远距离
1.681181E-6 低风险 0.4
CDM_260912-123805-285506-914421
2026-09-12T
12:38:35+0000
2.950 km
极远距离
1.358136E-6 低风险 0.38
CDM_260910-054905-285506-881721
2026-09-10T
05:49:02+0000
2.970 km
极远距离
1.348701E-6 低风险 0.38
CDM_260912-080005-285506-881621
2026-09-12T
08:00:23+0000
2.988 km
极远距离
1.326877E-6 低风险 0.37
CDM_260913-134905-285506-904321
2026-09-13T
13:49:54+0000
2.945 km
极远距离
1.32522E-6 低风险 0.37
CDM_260913-121505-285506-527821
2026-09-13T
12:15:50+0000
2.845 km
极远距离
1.04514E-6 低风险 0.35
CDM_260907-010705-285506-758521
2026-09-07T
01:07:37+0000
2.797 km
极远距离
9.331285E-7 极低风险 0.34
与全量物体交会距离演化趋势
与全量物体交会风险概率演化趋势